TimeCST,TemperatureF,Dew PointF,Humidity,Sea Level PressureIn,VisibilityMPH,Wind Direction,Wind SpeedMPH,Gust SpeedMPH,PrecipitationIn,Events,Conditions,WindDirDegrees,DateUTC
6:00 AM,78,64,52,29.85,12,NE,15.0,,,,Clear,50,2013-03-30 12:00:00
6:00 AM,78.8,64.4,61,29.83,-9999.0,NE,15.0,26.5,N/A,,Clear,50,2013-03-30 12:00:00
7:00 AM,80.6,64.4,58,29.84,-9999.0,East,20.7,32.2,N/A,,Clear,80,2013-03-30 13:00:00
8:00 AM,84.2,62.6,48,29.86,-9999.0,East,23.0,38.0,N/A,,Clear,80,2013-03-30 14:00:00
9:00 AM,86,63,36,29.88,12,ENE,25.3,,,,Clear,70,2013-03-30 15:00:00
9:00 AM,86.0,62.6,45,29.87,-9999.0,ENE,25.3,-,N/A,,Clear,70,2013-03-30 15:00:00
10:00 AM,87.8,62.6,43,29.87,-9999.0,ENE,25.3,-,N/A,,Clear,70,2013-03-30 16:00:00
11:00 AM,89.6,62.6,40,29.85,-9999.0,ENE,26.5,-,N/A,,Clear,60,2013-03-30 17:00:00
12:00 PM,92,61,25,29.84,12,East,20.7,,,,Clear,90,2013-03-30 18:00:00
12:00 PM,91.4,60.8,36,29.83,-9999.0,East,20.7,-,N/A,,Clear,90,2013-03-30 18:00:00
1:00 PM,91.4,60.8,36,29.81,-9999.0,East,19.6,31.1,N/A,,Clear,80,2013-03-30 19:00:00
2:00 PM,93.2,60.8,34,29.78,-9999.0,ENE,17.3,-,N/A,,Clear,60,2013-03-30 20:00:00
3:00 PM,95,60,22,29.79,12,ENE,15.0,,,,,60,2013-03-30 21:00:00
3:00 PM,95.0,60.8,32,29.77,-9999.0,ENE,15.0,-,N/A,,Clear,60,2013-03-30 21:00:00
4:00 PM,93.2,62.6,36,29.77,-9999.0,NE,19.6,-,N/A,,Clear,50,2013-03-30 22:00:00
5:00 PM,91.4,59.0,34,29.78,-9999.0,ENE,19.6,-,N/A,,Clear,60,2013-03-30 23:00:00
6:00 PM,87,60,31,29.80,12,ENE,18.4,,,,Clear,70,2013-03-31 00:00:00
6:00 PM,86.0,60.8,43,29.79,-9999.0,ENE,18.4,-,N/A,,Clear,70,2013-03-31 00:00:00
7:00 PM,84.2,59.0,42,29.81,-9999.0,ENE,17.3,-,N/A,,Clear,70,2013-03-31 01:00:00
8:00 PM,84.2,57.2,40,29.82,-9999.0,East,13.8,-,N/A,,Clear,80,2013-03-31 02:00:00
9:00 PM,80.6,60.8,51,29.84,-9999.0,ENE,15.0,-,N/A,,Clear,70,2013-03-31 03:00:00
10:00 PM,78.8,60.8,54,29.85,-9999.0,East,17.3,-,N/A,,Clear,80,2013-03-31 04:00:00